Location: ??????
(41.3164°N, 22.6615°E)
Time: 22:01:20
(UTC+00:00)

Cosmos 967 Rocket - Pass Details

Date: 16 October 2021
Orbit: 944 x 994 km, 65.8° (Epoch: 29 November)

Event Time Altitude Azimuth Distance (km) Brightness Sun altitude
Rises 17:00:38 0° 330° (NNW) 3,703 8.0 -14.6°
Reaches altitude 10° 17:03:15 10° 333° (NNW) 2,756 7.2 -15.1°
Maximum altitude 17:09:42 69° 56° (ENE) 1,062 4.5 -16.3°
Enters shadow 17:15:23 14° 139° (SE) 2,482 6.2 -17.4°
